This demonstration page uses our WeatherBlox Daily Observations layout. Learn more.

Left ArrowRight Arrow

39.08367, -84.50855

Hourly Observations for March 11, 2019

Temp ( °F °C ) Dew Point ( °F °C ) Humidity (%) Winds ( mph kmh ) Pressure ( in mb ) Visibility ( mi km ) Precip ( " mm )
12:53 am 00:53 Clear 42 5.6 31 -0.6 65 65 W 12 19 30.29 1026 10 16 N/A
1:53 am 01:53 Clear 40 4.4 31 -0.6 70 70 W 6 9 30.30 1026 10 16 N/A
2:53 am 02:53 Clear 40 4.4 31 -0.6 70 70 W 5 7 30.31 1027 10 16 N/A
3:53 am 03:53 Clear 39 3.9 31 -0.6 73 73 W 8 13 30.32 1027 10 16 N/A
4:53 am 04:53 Clear 40 4.4 30 -1.1 68 68 W 8 13 30.32 1027 10 16 N/A
5:53 am 05:53 Clear 39 3.9 30 -1.1 70 70 W 7 11 30.33 1027 10 16 N/A
6:53 am 06:53 Clear 37 2.8 28 -2.2 70 70 W 6 9 30.35 1028 10 16 N/A
7:53 am 07:53 Clear 35 1.7 29 -1.7 78 78 N N/A 30.35 1028 10 16 N/A
8:53 am 08:53 Sunny 34 1.1 31 -0.6 89 89 SSW 5 7 30.35 1028 10 16 N/A
9:53 am 09:53 Sunny 41 5 27 -2.8 57 57 N N/A 30.37 1028 10 16 N/A
10:53 am 10:53 Sunny 44 6.7 24 -4.4 45 45 W 3 6 30.37 1028 10 16 N/A
11:53 am 11:53 Sunny 47 8.3 23 -5 39 39 VRB 7 11 30.37 1029 10 16 N/A
12:53 pm 12:53 Sunny 50 10 22 -5.6 33 33 NNW 8 13 30.36 1028 10 16 N/A
1:53 pm 13:53 Partly Cloudy 51 10.6 20 -6.7 29 29 W 9 15 30.37 1028 10 16 N/A
2:53 pm 14:53 Cloudy 52 11.1 21 -6.1 30 30 NNW 7 11 30.35 1028 10 16 N/A
3:53 pm 15:53 Mostly Cloudy 51 10.6 18 -7.8 27 27 NNW 12 19 30.33 1027 10 16 N/A
4:53 pm 16:53 Mostly Cloudy 51 10.6 19 -7.2 28 28 N 6 9 30.34 1027 10 16 N/A
5:53 pm 17:53 Mostly Cloudy 52 11.1 20 -6.7 28 28 NNE 3 6 30.33 1027 10 16 N/A
6:53 pm 18:53 Mostly Sunny 51 10.6 22 -5.6 32 32 NNW 9 15 30.34 1027 10 16 N/A
7:53 pm 19:53 Clear 47 8.3 23 -5 39 39 N 10 17 30.35 1028 10 16 N/A
8:53 pm 20:53 Clear 44 6.7 25 -3.9 47 47 NNW 8 13 30.37 1029 10 16 N/A
9:53 pm 21:53 Clear 42 5.6 24 -4.4 49 49 NNW 6 9 30.39 1029 10 16 N/A
10:53 pm 22:53 Clear 41 5 25 -3.9 53 53 N N/A 30.40 1029 10 16 N/A
11:53 pm 23:53 Clear 34 1.1 27 -2.8 76 76 N N/A 30.40 1029 10 16 N/A

Powered by AerisWeather